Location: Ermatingen
(47.6706°N, 9.0857°E)
Time: 09:12:10
(UTC+00:00)

Cosmos 1428 Rocket - Pass Details

Date: 04 December 2021
Orbit: 949 x 987 km, 82.9° (Epoch: 26 January)

Event Time Altitude Azimuth Distance (km) Brightness Sun altitude
Rises 04:18:04 0° 133° (SE) 3,631 8.3 -25.5°
Reaches altitude 10° 04:21:38 10° 113° (ESE) 2,684 7.8 -24.9°
Maximum altitude 04:25:03 16° 78° (ENE) 2,297 7.3 -24.3°
Drops below altitude 10° 04:28:28 10° 44° (NE) 2,685 7.2 -23.7°
Sets 04:32:00 0° 23° (NNE) 3,634 7.7 -23.2°
